Find Starlink 38042

NORAD ID: 69991 Int'l Des: 2026-159 Owner: SPXS Country: US Constellation: starlink operational
LEOCIRCULARRETROGRADE

現在のビュー

3D地球を読み込み中...

About Starlink 38042

Starlink 38042 (NORAD 69991) is a starlink constellation satellite (v2 mini) launched Jul 11, 2026 by SPXS of US. It operates in LEO, CIRCULAR, RETROGRADE orbit with a mass of 575.00 kg.

次回通過

Passes for default location (London). Set your location on the main map for personalized predictions.

高度履歴

Loading altitude history...

軌道要素

1 69991U 26159S 26237.49498958 .00181735 00000-0 11900-2 0 9991
2 69991 97.2866 78.3399 0001922 66.3855 293.7612 15.75258757 8370
Epoch: Aug 25, 2026 • Age: 9 hours

現在のステータス

高度 372.6 km
遠地点 / 近地点 N/A
速度 7.68 km/s
衛星直下点 -79.24°S, 163.6°W
打ち上げ日 Jul 11, 2026
運用期間 0.1 years
タイプ internet

技術仕様

分類 Payload
質量 575.00 kg
乾燥質量 530.00 kg
総質量 575.00 kg
長さ 0.30 m
直径 4.10 m
スパン 29.00 m
形状 Box + pan
製造者 SPXS
バスタイプ Starlink V2MO
フェーズステータス In Orbit
所有者/国 SPXS/US

Most Searched